map of SGN home
Great Circle Mapper logo
SGN - Airport
Location
City:  Ho Chi Minh City, Vietnam
Near (Alt.):Saigon
Name:Tan Son Nhat International Airport
ICAO / IATA:VVTS / SGN

Details
Type:Airport (Aerodrome, Airfield)
Use:Public/Civil, International (customs port of entry)
Latitude:1049'08"N (10.818797)
Longitude:10639'07"E (106.651856)
Datum:WGS 1984
Elevation:33 ft (10 m)
Variation:0.42W (WMM2015 magnetic declination)
-0.03 annual change
Runways:2
Longest:12468 × 148 ft (3800 × 45 m), paved

Time
Time Zone:UTC+7
Local Time:

Weather
METAR:VVTS 261100Z 24010KT 9999 SCT017 BKN040 31/22 Q1008 NOSIG
TAF:VVTS 252300Z 2600/2706 24008KT 9999 SCT017
TEMPO 2606/2611 24015G25KT 3000 TSRA BKN015 SCT017CB

Related Locations
Nearby:
Farthest:SPSE: 12429 mi / 20002 km
Sepahua [Sepahua Airport], UCA, PE

Find:

   beyond  
but within

Other Information
Maps:
NOTAMs:
Links:
Sources:

  
flag of Vietnam   

Airport Diagram

Airport diagram for SGN

Airport diagram (OBSOLETE) from NGA

Sectional Chart

Flight Planning
at skyvector.com

Satellite Image

Google Maps Satellite View

 

Copyright © 2004-2015 Karl L. Swartz. All rights reserved.
The Great Circle Mapper name and logo are trademarks of the Great Circle Mapper.
All other trademarks mentioned herein belong to their respective owners.
Please see credits for attibutions and further copyright information.

  Follow gcmap on Facebook Follow gcmap on Twitter Follow gcmap on Google+

hCard Microformat

Geo Microformat